Погода в Владимировке

Россия / Курская область     51°16′46″N   37°03′59″E
темп.,
°C
ветер,
м/с
пор.,
м/с
влажн.,
%
обл.,
%
осадки,
мм/ч
давл.,
гПа
погр.,
м
25 февраля, чт
чт2500:00−9ююз51094100 0.4 1033286
03:00−7юз4895100 0.6 1032265
06:00−6юз5995100 0.2 1029255
09:00−3юз61196100 0.3 1027406
12:00+1зюз61299100 0.0 1025387
15:00+2зюз612100100 0.1 1023352
18:00+2з61399100 0.1 1022334
21:00+2з61299100 0.1 1022305
26 февраля, пт
пт2600:00+1з51199100 0.2 1022283
03:00+2зсз51199100 0.2 1022249
06:00+2з51099100 0.0 1021269
09:00+2з61199100 0.0 1020300
12:00+2зюз713100100 0.0 1019366
15:00+2зюз814100100 0.0 1017451
18:00+2з71398100 0.0 1015428
21:00+2з51299100 0.1 1015302
27 февраля, сб
сб2700:00+1з51296100 0.0 1014324
03:00+1з51097100 0.0 1013361
06:00+1з61297100 0.0 1011455
09:00+1зсз61298100 0.1 1011610
12:00+1з61296100 0.0 1010570
15:00+1зсз6109898 0.1 1011543
18:00+1зсз61097100 0.1 1010557
21:000зсз5998100 0.2 1011386
28 февраля, вс
вс2800:000сз4798100 0.5 1011315
03:00−1ссз379798 0.8 1013278
06:00−2ссз389788 0.1 1014293
09:00−1с479094 0.2 1016642
12:000с5792100 0.1 1017699
15:000с5787100 0.3 1019759
18:00−1ссз4891100 0.1 1020551
21:00−2ссз499598 0.3 1023469
1 марта, пн
пн100:00−2с599483 0.1 1024477
03:00−4с379585 0.1 1026262
06:00−4ссз369693 0.1 1027266
09:00−4с359396 0.3 1029377
12:00−2с458092 0.1 1030798
15:00−2ссз357696 0.2 1031911
18:00−4сз238658 0.0 103172
21:00−4сз359153 0.0 1032114